Tracking 30685 objects as of 17-Jun-2025
HD Live streaming from Space Station
objects crossing your sky now

STARLINK-34010

Track STARLINK-34010 now!
10-day predictions
STARLINK-34010 is classified as:


NORAD ID: 63848
Int'l Code: 2025-093N
Perigee: 450.2 km
Apogee: 452.0 km
Inclination: 43.0 °
Period: 93.5 minutes
Semi major axis: 6822 km
RCS: Unknown
Launch date: May 7, 2025
Source: United States (US)
Launch site: AIR FORCE EASTERN TEST RANGE (AFETR)
Your satellite tracking list
Your tracking list is empty




NASA's NSSDC Master Catalog

Two Line Element Set (TLE):
1 63848U 25093N   25167.62384614  .00025311  00000-0  61048-3 0  9997
2 63848  43.0023 141.1200 0001300 292.3385  67.7334 15.40734001  7055
Source of the keplerian elements: AFSPC